Find Kosmos-1911

NORAD ID: 18790 Int'l Des: 1988-002 Owner: UNKS Country: SU operational
LEOCIRCULARPOLAR

实时位置

正在加载3D地球...

关于 Kosmos-1911

正在加载描述...

即将过境

Passes for default location (London). Set your location on the main map for personalized predictions.

高度历史

Loading altitude history...

两行轨道根数

1 18790U 88002C 26106.77751590 .00000026 00000-0 85490-4 0 9997
2 18790 82.6044 287.7155 0006390 272.5715 98.4090 12.64383403765195
Epoch: Apr 16, 2026 • Age: 18 hours

当前状态

高度 1427.2 km
速度 7.15 km/s
星下点 -74.36°S, 93.35°E
发射日期 Jan 15, 1988
运行时间 38.2 years
类型 other

技术详情

分类 Payload
质量 225.00 kg
干质量 225.00 kg
总质量 225.00 kg
长度 1.60 m
直径 0.80 m
跨度 7.00 m
形状 Cyl + Ant
制造商 NPOPM
平台类型 Strela-3
阶段状态 In Orbit
所有者/国家 UNKS/SU

Most Searched